Mattoon, IL

11:06 AM CDT on October 17, 2019 (GMT -0500)
Coles County Memorial

Weather History for KMTO - May, 2019

Change the Weather History Date:

Tuesday, May 14, 2019

  Actual Average Record
Temperature  
Mean Temperature 57 °F 63 °F  
Max Temperature 69 °F 73 °F 92 °F (1987)
Min Temperature 44 °F 53 °F 39 °F (2000)
Degree Days  
Heating Degree Days 8 5  
Month to date heating degree days 111 78  
Since 1 July heating degree days 5498 5340  
Cooling Degree Days 0 2  
Month to date cooling degree days 5 19  
Year to date cooling degree days 10 33  
Growing Degree Days 6 (Base 50)    
Moisture  
Dew Point 43 °F    
Average Humidity 62    
Maximum Humidity 89    
Minimum Humidity 35    
Precipitation  
Precipitation 0.00 in 0.16 in 0.94 in (1974)
Month to date precipitation 0.81 2.13  
Year to date precipitation 9.83 12.11  
Sea Level Pressure  
Sea Level Pressure 30.02 in    
Wind  
Wind Speed 5 mph (West)    
Max Wind Speed 12 mph    
Max Gust Speed 16 mph    
Visibility 10 miles    
Events      
T = Trace of Precipitation, MM = Missing Value Source: NWS Daily Summary

Daily Weather History Graph

Daily Weather History Graph

Search for Another Location

Airport or City:

Astronomy

May. 14, 2019 Rise Set
Actual Time 5:40 AM CDT 7:59 PM CDT
Civil Twilight 5:10 AM CDT 8:29 PM CDT
Nautical Twilight 4:32 AM CDT 9:06 PM CDT
Astronomical Twilight 3:51 AM CDT 9:48 PM CDT
Moon 3:21 PM CDT (5/14) 3:31 AM CDT (5/14)
Length of Visible Light 15h 19m
Length of Day
14h 18m
Waxing Gibbous, 79% of the Moon is Illuminated
May 14
Waxing Gibbous
May 18
Full
May 26
Last Quarter
Jun 3
New
Jun 10
First Quarter

Hourly Weather History & Observations

Time (CDT) Temp. Dew Point Humidity Pressure Visibility Wind Dir Wind Speed Gust Speed Precip Events Conditions
12:53 AM 45.0 °F 41.0 °F 86% 30.01 in 10.0 mi Calm Calm - N/A   Clear
1:53 AM 52.0 °F 41.0 °F 66% 30.00 in 10.0 mi WSW 5.8 mph - N/A   Clear
2:53 AM 50.0 °F 41.0 °F 71% 30.00 in 10.0 mi WSW 4.6 mph - N/A   Clear
3:53 AM 50.0 °F 41.0 °F 71% 30.01 in 10.0 mi West 5.8 mph - N/A   Clear
4:53 AM 48.9 °F 41.0 °F 74% 30.02 in 10.0 mi West 5.8 mph - N/A   Clear
5:53 AM 48.0 °F 41.0 °F 77% 30.04 in 10.0 mi West 5.8 mph - N/A   Clear
6:53 AM 52.0 °F 42.1 °F 69% 30.06 in 10.0 mi West 5.8 mph - N/A   Clear
7:53 AM 57.0 °F 44.1 °F 62% 30.07 in 10.0 mi WNW 9.2 mph - N/A   Clear
8:53 AM 60.1 °F 44.1 °F 55% 30.07 in 10.0 mi WNW 8.1 mph - N/A   Clear
9:53 AM 64.0 °F 42.1 °F 45% 30.07 in 10.0 mi NW 6.9 mph - N/A   Clear
10:53 AM 64.9 °F 41.0 °F 42% 30.06 in 10.0 mi NW 8.1 mph - N/A   Clear
11:53 AM 68.0 °F 41.0 °F 37% 30.06 in 10.0 mi North 8.1 mph - N/A   Partly Cloudy
12:53 PM 66.9 °F 39.0 °F 36% 30.06 in 10.0 mi Variable 4.6 mph - N/A   Partly Cloudy
1:53 PM 66.0 °F 41.0 °F 40% 30.03 in 10.0 mi North - - N/A   Mostly Cloudy
2:53 PM 68.0 °F 39.0 °F 35% 30.02 in 10.0 mi Variable 6.9 mph - N/A   Clear
3:53 PM 68.0 °F 39.0 °F 35% 30.01 in 10.0 mi Variable 3.5 mph - N/A   Partly Cloudy
4:53 PM 66.9 °F 39.9 °F 37% 30.00 in 10.0 mi WSW 5.8 mph - N/A   Clear
5:53 PM 68.0 °F 41.0 °F 37% 29.98 in 10.0 mi Calm Calm - N/A   Mostly Cloudy
6:53 PM 64.9 °F 43.0 °F 45% 29.97 in 10.0 mi SSW 4.6 mph - N/A   Overcast
7:53 PM 62.1 °F 48.9 °F 62% 29.99 in 10.0 mi Calm Calm - N/A   Overcast
8:53 PM 61.0 °F 48.9 °F 64% 29.99 in 10.0 mi Calm Calm - N/A   Overcast
9:53 PM 59.0 °F 51.1 °F 75% 30.01 in 10.0 mi Calm Calm - N/A   Overcast
10:53 PM 59.0 °F 48.9 °F 69% 30.00 in 10.0 mi South 3.5 mph - N/A   Overcast
11:53 PM 57.0 °F 51.1 °F 81% 29.99 in 10.0 mi SSE 4.6 mph - N/A   Overcast